Retour au catalogue

FENGYUN 1C DEB

ActifSSO
NORAD 30069·DEBRIS·🇨🇳 China

Lancé May 10, 1999 depuis Taiyuan Satellite Launch Center

Loading…

Prochains Passages (prochaines 24 heures)

TLE

FraisSource: Space-Track

Époque: Sep 14, 2026, 04:22 UTC

1 30069U 99025PW  26257.18221829  .00000429  00000-0  28801-3 0  9995
2 30069  98.8303 236.4555 0049135   1.8805 126.7271 14.05431035  7149

Suivez FENGYUN 1C DEB en temps réel avec AllMySat

Download on the App Store